Location: Chuathbaluk
(61.5726°N, 159.2454°W)
Time: 23:17:27
(UTC+00:00)

Explorer 7 - Pass Details

Date: 13 December 2021
Orbit: 483 x 674 km, 50.3° (Epoch: 21 January)

Event Time Altitude Azimuth Distance (km) Brightness Sun altitude
Exits shadow 17:06:39 11° 229° (SW) 1,828 9.2 -16.2°
Maximum altitude 17:08:39 14° 201° (SSW) 1,599 9.2 -16.0°
Drops below altitude 10° 17:10:50 10° 168° (SSE) 1,814 9.9 -15.7°
Sets 17:13:53 0° 143° (SE) 2,661 11.3 -15.4°
